Location: Chantarel
(45.1638°N, 1.7873°E)
Time: 12:36:26
(UTC+00:00)

SL-08 RB Rocket - Pass Details

Date: 03 March 2021
Orbit: 647 x 683 km, 97.8° (Epoch: 11 April)

Event Time Altitude Azimuth Distance (km) Brightness Sun altitude
Rises 18:49:54 0° 159° (SSE) 2,963 6.8 -12.6°
Reaches altitude 10° 18:52:06 10° 157° (SSE) 2,061 6.0 -13.0°
Maximum altitude 18:56:34 70° 75° (ENE) 707 3.6 -13.8°
Drops below altitude 10° 19:01:07 10° 352° (N) 2,099 6.4 -14.6°
Sets 19:03:23 0° 350° (N) 3,022 7.3 -14.9°
